Flag for Germany Weather past 2 weeks in Tuttlingen, Baden-Württemberg, Germany

Now
48 °F

Overcast.


Feels Like: 46 °F
Forecast: 30 / 49 °F
Wind: 5 mph from Southwest

Location: Konstanz

Current Time: Oct 23, 2014 at 2:54:48 PM

Latest Report: Oct 23, 2014 at 2:00 PM


Visibility: 16 mi

Pressure: 30.30 "Hg

Humidity: 74%

Dew point: 40 °F

Location of TuttlingenLocation

Historic Weather in Tuttlingen — Graph

°F

Tuttlingen temperature yesterday

Maximum temperature yesterday: 47 °F (at 12:00 AM)
Minimum temperature yesterday: 41 °F (at 9:00 AM)
Average temperature yesterday: 44 °F

Past Weeks' High & Low Weather Summary

 TemperatureHumidityPressure
High76 °F (Oct 9, 5:00 PM)100% (Oct 9, 2:00 AM)30.32 "Hg (Oct 9, 2:00 AM)
Low41 °F (Oct 22, 9:00 AM)49% (Oct 9, 3:00 PM)29.69 "Hg (Oct 21, 8:00 PM)
Average58 °F86%29.97 "Hg
* Reported Oct 8 1:00 PM — Oct 23 1:00 PM, Tuttlingen, Weather by CustomWeather, © 2014

Note: Actual official high and low records may vary slightly from our data, if they occured in-between our weather recording intervals... More about our weather records

Advertising

Tuttlingen weather history for previous 24 hours

 ConditionsComfort  
Time TempWeatherWind HumidityBarometerVisibility
1:00 PM
Oct 23
47 °FOvercast.5 mph77%30.31 "Hg12 mi
12:00 PM47 °FOvercast.3 mph80%30.32 "Hg12 mi
11:00 AM46 °FOvercast.3 mph81%30.31 "Hg12 mi
10:00 AM45 °FOvercast.5 mph83%30.30 "Hg10 mi
9:00 AM44 °FSprinkles. Overcast.6 mph84%30.30 "Hg11 mi
8:00 AM44 °FOvercast.6 mph86%30.28 "Hg16 mi
7:00 AM44 °FOvercast.5 mph90%30.26 "Hg16 mi
6:00 AM43 °FSprinkles. Overcast.6 mph90%30.26 "Hg9 mi
5:00 AM44 °FOvercast.6 mph84%30.25 "Hg28 mi
4:00 AM44 °FDrizzle. Overcast.7 mph86%30.25 "Hg22 mi
3:00 AM43 °FOvercast.5 mph89%30.23 "Hg31 mi
2:00 AM43 °FLight freezing rain. Overcast.5 mph93%30.22 "Hg7 mi
1:00 AM43 °FLight freezing rain. Overcast.7 mph89%30.21 "Hg7 mi
12:00 AM44 °FDrizzle. Overcast.7 mph83%30.19 "Hg22 mi
11:00 PM
Oct 22
44 °FFog.7 mph80%30.19 "Hg22 mi
10:00 PM44 °FLight rain. Overcast.8 mph85%30.17 "Hg8 mi
9:00 PM44 °FSprinkles. Overcast.7 mph83%30.17 "Hg9 mi
8:00 PM43 °FSprinkles. Overcast.7 mph81%30.17 "Hg9 mi
7:00 PM44 °FOvercast.7 mph74%30.16 "Hg16 mi
6:00 PM44 °FOvercast.7 mph72%30.16 "Hg16 mi
5:00 PM44 °FOvercast.7 mph73%30.16 "Hg12 mi
4:00 PM44 °FOvercast.7 mph76%30.17 "Hg11 mi
3:00 PM44 °FSprinkles. Overcast.7 mph78%30.17 "Hg5 mi
2:00 PM44 °FOvercast.7 mph76%30.17 "Hg7 mi
Weather by CustomWeather, © 2014

See weather overviewHow to use our weather pages